Location: Croisilles
(50.1998°N, 2.8793°E)
Time: 13:03:46
(UTC+00:00)

SAR-Lupe-1 - Pass Details

Date: 21 January 2021
Orbit: 481 x 485 km, 98.2° (Epoch: 22 February)

Event Time Altitude Azimuth Distance (km) Brightness Sun altitude
Exits shadow 18:18:05 47° 76° (ENE) 646 4.2 -17.9°
Maximum altitude 18:18:29 50° 101° (E) 621 4.2 -17.9°
Drops below altitude 10° 18:21:57 10° 178° (S) 1,658 6.8 -18.5°
Sets 18:24:03 0° 184° (S) 2,533 7.9 -18.8°
